Regional Weather Roundup
Issued by NWS

Home | Current Version | Previous Version | Text Only | Print | Product List | Glossary Off
Versions: 1 2 3 4 5 6 7 8 9 10 11 12 13 14 15 16 17 18 19 20 21 22 23 24 25 26 27 28 29 30 31 32 33 34 35 36 37 38 39 40 41 42 43 44 45 46 47 48 49 50

000
ASUS43 KMPX 281701
RWRMN
WEATHER ROUNDUP FOR MINNESOTA
NATIONAL WEATHER SERVICE TWIN CITIES/CHANHASSEN MN
1100 AM CST FRI NOV 28 2014


NOTE: "FAIR" INDICATES FEW OR NO CLOUDS BELOW 12,000 FEET WITH NO
SIGNIFICANT WEATHER AND/OR OBSTRUCTIONS TO VISIBILITY. N/A MEANS
CURRENT SKY AND/OR WEATHER CONDITIONS ARE NOT AVAILABLE.

MNZ060>063-068>070-281800-
   Twin Cities Metro

CITY           SKY/WX    TMP DP  RH WIND       PRES   REMARKS
TWIN CITIES    CLOUDY    17  10  74 SE9       29.97F WCI   6
ST PAUL        CLOUDY    19  11  70 SE12      30.00F WCI   7
CRYSTAL        CLOUDY    19  11  70 SE9       29.96F WCI   8
BLAINE         CLOUDY    19  12  73 SE8       29.97  WCI   9
LAKEVILLE      MOSUNNY   18  10  73 SE6       29.96F WCI   9
EDEN PRAIRIE   CLOUDY    19  10  68 SE12      29.95F WCI   7
SOUTH ST PAUL  CLOUDY    19  11  70 SE5       29.98S WCI  13
LAKE ELMO      CLOUDY    19  12  73 SE7       29.99F WCI  10
$$
MNZ001>005-007-008-013>017-022>024-027-028-281800-
   Northwest Minnesota

CITY           SKY/WX    TMP DP  RH WIND       PRES   REMARKS
BEMIDJI        LGT SNOW  10   6  83 SE7       29.90F WCI   0
HALLOCK        FLURRIES  14   9  79 E8        29.94F WCI   3
ROSEAU         PTSUNNY   12   7  79 E12       29.94F WCI  -2
WARROAD        MOSUNNY   10   3  72 E10       29.95F WCI  -3
THIEF RVR FALL CLOUDY    12   7  79 E9        29.92F WCI   0
CROOKSTON      LGT SNOW  14   9  79 SE6       29.95S WCI   5
FOSSTON        PTSUNNY   12   7  79 SE3       29.90F
DETROIT LAKES  MOSUNNY   14   9  79 SE9       29.89F WCI   2
MOORHEAD       MIX PCPN  16  10  79 SE7       29.91F WCI   6
PARK RAPIDS    CLOUDY    11   6  81 SE8       29.89F WCI  -1
MAHNOMEN       CLOUDY    12   5  74 SE6       29.90F WCI   2
$$
MNZ006-009>011-018-025>026-281800-
   North Central Minnesota

CITY           SKY/WX    TMP DP  RH WIND       PRES   REMARKS
BAUDETTE       MOSUNNY    9   2  73 SE3       29.96F
FLAG ISLAND    MOSUNNY    7   0  72 CALM      29.99S
INTL FALLS     CLOUDY    12   4  70 CALM      29.97F
WASKISH        FLURRIES  12   9  85 CALM      29.94F
BIG FORK       FLURRIES  12   7  79 CALM      29.95F
LONGVILLE      LGT SNOW  12   7  79 SE6       29.91F WCI   3
GRAND RAPIDS   CLOUDY     9   3  78 SE7       29.92F WCI  -3
CRANE LAKE     CLOUDY    10   3  72 CALM      30.00F
ORR            FLURRIES  10   3  72 CALM      29.93F
COOK           LGT SNOW  10   5  79 E3        29.96F
WALKER         LGT SNOW  10   5  79 SE3       29.91F
$$
MNZ012-019>021-037-281800-
   Northeast Minnesota

CITY           SKY/WX    TMP DP  RH WIND       PRES   REMARKS
DULUTH         LGT SNOW  12   7  80 SE12      29.95F WCI  -2
ELY            CLOUDY    12   7  79 SE6       29.97F WCI   3
HIBBING        LGT SNOW  12   6  77 SE7       29.96F WCI   1
EVELETH        LGT SNOW  12   9  85 E3        29.97F
DULUTH HARBOR  CLOUDY    14  10  85 CALM      30.04F
TWO HARBORS    LGT SNOW  18  12  79 E3        29.98F VSB 1
SILVER BAY     LGT SNOW  18  12  79 CALM      29.98F VSB 3/4
GRAND MARAIS     N/A     22  12  65 SE3       30.06F
G MARAIS ARPRT LGT SNOW  14   9  79 SE7       29.96F WCI   4
$$
MNZ029>031-032-039>041-046>048-054>057-064-281800-
   West Central Minnesota

CITY           SKY/WX    TMP DP  RH WIND       PRES   REMARKS
FERGUS FALLS   PTSUNNY   12   5  73 SE8       29.93F WCI   1
WHEATON        CLOUDY    12   9  85 E13       29.89F WCI  -3
MORRIS         PTSUNNY   16   9  73 SE12      29.88S WCI   3
ALEXANDRIA     MIX PCPN  12   7  80 SE14      29.88F WCI  -3
ELBOW LAKE     LGT SNOW  13   9  82 E10       29.88S WCI   0
WADENA         CLOUDY    10   5  79 SE8       29.90R WCI  -1
GLENWOOD       FLURRIES  14   9  79 E13       29.89F WCI   0
APPLETON       LGT SNOW  16  10  79 SE7       29.89R WCI   6
BENSON         FLURRIES  16  10  79 SE8       29.87F WCI   5
ORTONVILLE     LGT SNOW  12   9  85 E7        29.86F WCI   2
MADISON        CLOUDY    19  14  79 E7        29.88S WCI  10
WILLMAR        FAIR      18  10  73 E12       29.89F WCI   5
$$
MNZ033>034-036-042>043-049>051-058-059-281800-
   Central Minnesota

CITY           SKY/WX    TMP DP  RH WIND       PRES   REMARKS
ST CLOUD       CLOUDY    16   9  74 E9        29.94F WCI   4
SAUK CENTRE    FLURRIES  12   7  81 E13       29.91F WCI  -3
PAYNESVILLE    CLOUDY    13   8  81 NE9       29.91S WCI   0
AITKIN         FLURRIES  16   7  67 SE8       29.92F WCI   5
PINE RIVER     CLOUDY    12   7  79 SE9       29.95F WCI   0
BRAINERD       CLOUDY    11   7  84 SE7       29.93F WCI   0
STAPLES        CLOUDY    10   5  79 E6        29.91F WCI   1
LONG PRAIRIE   FLURRIES  10   7  85 E9        29.91F WCI  -2
LITTLE FALLS   LGT SNOW  14   9  79 SE9       29.94F WCI   2
LITCHFIELD     PTSUNNY   18  12  79 SE9       29.92F WCI   6
BUFFALO        CLOUDY    17  10  73 E7        29.95F WCI   8
MAPLE LAKE     CLOUDY    18  12  76 E6        29.95F WCI  10
$$
MNZ037-044-045-052-053-281800-
   East Central Minnesota

CITY           SKY/WX    TMP DP  RH WIND       PRES   REMARKS
PRINCETON      FLURRIES  16  10  79 E7        29.95F WCI   6
MORA             N/A    N/A N/A N/A MISG        N/A
CAMBRIDGE      FLURRIES  16   9  73 SE7       29.96F WCI   6
RUSH CITY      CLOUDY    15   9  78 E6        29.98F WCI   6
MOOSE LAKE     LGT SNOW  14   9  79 SE5       29.97F WCI   6
HINCKLEY       FLURRIES  14  10  85 E7        29.98F WCI   4
CLOQUET        LGT SNOW  10   7  85 SE3       29.96F
MCGREGOR       CLOUDY    14  10  85 SE8       29.95F WCI   3
$$
MNZ071>073-080-081-089-090-097-098-281800-
   Southwest Minnesota

CITY           SKY/WX    TMP DP  RH WIND       PRES   REMARKS
MONTEVIDEO     CLOUDY    16  12  86 S9        29.89S WCI   4
GRANITE FALLS  CLOUDY    16  11  82 E10       29.88F WCI   4
CANBY          CLOUDY    16  12  84 E6        29.85F WCI   8
MARSHALL       CLOUDY    16  10  79 E8        29.85F WCI   5
REDWOOD FALLS  CLOUDY    17  12  80 SE8       29.89F WCI   7
OLIVIA         LGT SNOW  18  12  79 E12       29.86F WCI   5
PIPESTONE      PTSUNNY   25  21  86 SE8       29.78F WCI  16
WINDOM           N/A     19  18  93 SE6       29.84F WCI  11
WORTHINGTON    CLOUDY    21  18  86 SE5       29.83R WCI  15
JACKSON        PTSUNNY   21  18  86 SE6       29.85F WCI  14
TRACY          CLOUDY    21  17  84 SE7       29.83F WCI  12
SLAYTON        CLOUDY    20  18  90 CALM      29.82F
$$
MNZ065>067-074>077-082>085-091>093-281800-
   South Central Minnesota

CITY           SKY/WX    TMP DP  RH WIND       PRES   REMARKS
MANKATO        PTSUNNY   19  12  73 S7        29.93R WCI  10
NEW ULM        CLOUDY    18  14  86 SE8       29.90F WCI   7
ST JAMES       MIX PCPN  21  18  86 SE8       29.90S WCI  12
FAIRMONT       CLOUDY    19  16  86 SE10      29.87F WCI   8
GLENCOE        MOSUNNY   18  12  77 E9        29.92F WCI   7
FARIBAULT      MOSUNNY   19  12  73 SE8       29.95S WCI   9
OWATONNA       PTSUNNY   19  12  73 SE13      29.92S WCI   7
WASECA         PTSUNNY   19  12  73 SE8       29.94S WCI   9
ALBERT LEA     CLOUDY    19  14  79 S14G20    29.91F WCI   6
$$
MNZ078>079-086>088-094>096-281800-
   Southeast Minnesota

CITY           SKY/WX    TMP DP  RH WIND       PRES   REMARKS
ROCHESTER      MOSUNNY   19  12  74 S15       29.94S WCI   5
RED WING       CLOUDY    21  12  68 SE9       29.98F WCI  11
STANTON        MOSUNNY   22  13  66 S8        29.96R WCI  13
DODGE CENTER   MOSUNNY   19  14  79 S15       29.92F WCI   5
WINONA         MOSUNNY   25  14  63 SE7       30.01F WCI  17
AUSTIN         CLOUDY    18  12  79 S12       29.92F WCI   5
PRESTON        MOSUNNY   19  13  77 S15       29.96R WCI   5
$$
ABBREVIATIONS USED IN REMARKS
   TC - TEMPERATURES IN CELSIUS
  WCI - WIND CHILL INDEX
   HX - HEAT INDEX
  VSB - VISIBILITY
$$



USA.gov is the U.S. government's official web portal to all federal, state and local government web resources and services.